�N����,����,�~����,�C��,���x,�C��,����,���ϕ���,�ő�u�ԕ���,�ő厞����,���˗�,�I�_���x,�n�����x,�ő啗���N��,DTYPE
"23/04/01","00:10",0.0,9.9,71.7,1012.3,298.8,2.6,3.5,329.2,0.00,5.1,12.9,"00:08:32",1
"23/04/01","00:20",0.0,9.9,71.9,1012.3,293.9,2.3,3.5,309.6,0.00,5.1,12.9,"00:11:44",1
"23/04/01","00:30",0.0,9.9,72.0,1012.1,288.3,2.1,3.3,327.9,0.00,5.1,13.1,"00:21:36",1
"23/04/01","00:40",0.0,9.9,72.2,1012.1,307.8,2.6,3.4,319.6,0.00,5.2,13.0,"00:35:52",1
"23/04/01","00:50",0.0,9.2,72.7,1012.1,323.5,1.6,2.6,342.8,0.00,4.6,12.8,"00:41:28",1
"23/04/01","01:00",0.0,8.9,73.5,1012.3,305.7,2.1,3.2,315.0,0.00,4.5,12.8,"00:56:16",1
"23/04/01","01:10",0.0,9.0,74.3,1012.1,330.7,1.7,3.7,327.1,0.00,4.7,12.9,"01:00:24",1
"23/04/01","01:20",0.0,8.7,75.2,1012.3,326.4,2.1,2.8,323.6,0.00,4.6,12.7,"01:16:40",1
"23/04/01","01:30",0.0,8.6,76.2,1012.3,311.6,2.6,4.2,296.7,0.00,4.7,12.6,"01:27:28",1
"23/04/01","01:40",0.0,9.1,75.8,1012.1,310.5,3.0,4.1,332.8,0.00,5.1,12.7,"01:38:00",1
"23/04/01","01:50",0.0,9.3,75.2,1012.1,315.0,3.5,5.1,317.4,0.00,5.2,12.7,"01:49:20",1
"23/04/01","02:00",0.0,9.2,74.6,1012.1,288.0,2.3,4.8,312.1,0.00,5.0,12.7,"01:50:16",1
"23/04/01","02:10",0.0,8.7,74.7,1012.1,305.2,1.6,2.4,317.8,0.00,4.5,12.6,"02:09:28",1
"23/04/01","02:20",0.0,8.4,75.4,1012.1,324.8,2.3,3.3,334.8,0.00,4.3,12.5,"02:15:12",1
"23/04/01","02:30",0.0,8.0,75.9,1012.3,293.5,1.6,3.1,303.4,0.00,4.1,12.4,"02:21:44",1
"23/04/01","02:40",0.0,8.5,76.5,1011.9,307.7,3.4,4.8,309.3,0.00,4.7,12.5,"02:37:04",1
"23/04/01","02:50",0.0,8.4,76.5,1012.1,301.7,2.2,3.4,317.1,0.00,4.6,12.4,"02:42:40",1
"23/04/01","03:00",0.0,8.2,76.7,1011.9,288.1,2.0,3.2,323.5,0.00,4.4,12.2,"02:53:44",1
"23/04/01","03:10",0.0,8.0,77.0,1011.9,293.5,2.1,3.1,309.2,0.00,4.3,12.2,"03:08:08",1
"23/04/01","03:20",0.0,8.1,77.3,1011.9,320.2,2.3,3.5,312.6,0.00,4.4,12.2,"03:11:52",1
"23/04/01","03:30",0.0,7.7,77.5,1012.1,289.4,1.6,3.4,319.5,0.00,4.1,12.1,"03:20:02",1
"23/04/01","03:40",0.0,7.9,78.0,1011.6,319.5,3.1,4.5,320.0,0.00,4.3,12.2,"03:39:20",1
"23/04/01","03:50",0.0,8.3,77.6,1011.9,314.5,3.6,5.7,317.3,0.00,4.7,12.3,"03:45:52",1
"23/04/01","04:00",0.0,8.1,77.5,1011.6,289.9,2.3,4.9,312.3,0.00,4.4,11.9,"03:54:16",1
"23/04/01","04:10",0.0,8.6,76.9,1011.9,319.5,4.0,5.8,314.8,0.00,4.8,12.2,"04:03:36",1
"23/04/01","04:20",0.0,8.5,76.0,1011.9,316.6,4.2,6.8,323.4,0.00,4.6,12.0,"04:18:32",1
"23/04/01","04:30",0.0,8.3,75.8,1011.9,329.8,4.6,6.5,325.3,0.00,4.3,11.8,"04:20:48",1
"23/04/01","04:40",0.0,8.0,76.3,1011.9,327.8,4.0,5.6,335.3,0.00,4.1,12.1,"04:32:40",1
"23/04/01","04:50",0.0,7.8,77.0,1011.9,329.5,3.7,4.5,313.7,0.00,4.1,12.0,"04:46:16",1
"23/04/01","05:00",0.0,7.7,77.3,1012.1,331.2,3.9,5.5,340.1,0.00,4.0,11.8,"04:58:16",1
"23/04/01","05:10",0.0,7.6,77.2,1012.3,324.4,3.6,4.9,318.9,0.00,3.9,11.9,"05:02:24",1
"23/04/01","05:20",0.0,7.5,77.2,1011.9,320.7,4.0,5.0,326.4,0.00,3.8,11.8,"05:19:04",1
"23/04/01","05:30",0.0,7.5,76.9,1012.1,322.0,3.6,5.1,318.1,0.00,3.8,11.7,"05:20:16",1
"23/04/01","05:40",0.0,7.4,76.9,1012.1,323.7,3.9,5.7,338.7,0.00,3.7,11.7,"05:36:00",1
"23/04/01","05:50",0.0,7.4,77.0,1011.9,322.5,3.7,5.0,339.7,0.00,3.7,11.6,"05:40:08",1
"23/04/01","06:00",0.0,7.4,76.8,1011.9,315.7,4.4,5.7,324.5,0.00,3.6,11.7,"05:52:08",1
"23/04/01","06:10",0.0,7.5,76.7,1012.1,318.4,4.5,5.9,331.4,0.00,3.7,11.6,"06:02:08",1
"23/04/01","06:20",0.0,7.4,76.7,1011.6,317.9,4.2,5.7,311.2,0.00,3.6,11.8,"06:14:00",1
"23/04/01","06:30",0.0,7.3,76.9,1012.1,317.6,4.1,5.5,330.2,0.00,3.6,11.6,"06:22:08",1
"23/04/01","06:40",0.0,7.3,77.2,1011.9,326.2,3.7,5.0,333.1,0.00,3.6,11.7,"06:36:00",1
"23/04/01","06:50",0.0,7.3,77.5,1012.1,321.3,3.5,4.5,315.6,0.00,3.7,11.6,"06:44:08",1
"23/04/01","07:00",0.0,7.3,78.1,1011.9,322.3,3.0,4.3,319.9,0.00,3.8,11.6,"06:51:28",1
"23/04/01","07:10",0.0,7.5,78.4,1012.1,327.7,3.0,4.2,341.9,0.01,4.0,11.4,"07:04:32",1
"23/04/01","07:20",0.0,7.8,78.4,1012.1,328.8,3.1,4.4,342.7,0.02,4.3,11.4,"07:13:28",1
"23/04/01","07:30",0.0,8.4,78.0,1012.6,316.9,3.1,4.2,313.0,0.03,4.8,11.5,"07:21:52",1
"23/04/01","07:40",0.0,9.0,76.6,1012.6,314.1,3.0,3.9,325.1,0.05,5.2,11.3,"07:37:52",1
"23/04/01","07:50",0.0,9.4,75.4,1012.6,324.0,2.7,4.0,338.3,0.07,5.3,11.4,"07:46:32",1
"23/04/01","08:00",0.0,10.0,74.0,1012.8,332.1,1.8,2.8,329.6,0.09,5.6,11.4,"07:59:36",1
"23/04/01","08:10",0.0,10.7,71.4,1012.8,340.1,2.0,3.1,352.2,0.11,5.8,11.2,"08:04:16",1
"23/04/01","08:20",0.0,11.6,68.6,1013.3,338.8,1.6,3.6,329.9,0.14,6.1,11.2,"08:19:04",1
"23/04/01","08:30",0.0,12.0,66.0,1013.0,330.9,2.1,3.7,329.7,0.17,5.9,11.5,"08:23:04",1
"23/04/01","08:40",0.0,12.5,64.2,1013.0,321.2,2.2,3.6,332.5,0.19,6.0,11.3,"08:34:34",1
"23/04/01","08:50",0.0,13.0,62.0,1013.3,327.6,2.2,3.5,336.9,0.22,5.9,11.5,"08:46:00",1
"23/04/01","09:00",0.0,13.5,60.8,1013.0,324.9,2.2,3.5,344.1,0.25,6.1,11.4,"08:50:32",1
"23/04/01","09:10",0.0,14.0,58.8,1013.0,326.6,2.2,3.7,337.3,0.28,6.1,11.5,"09:04:08",1
"23/04/01","09:20",0.0,14.6,56.7,1012.8,317.7,1.8,3.4,334.7,0.30,6.1,11.4,"09:15:52",1
"23/04/01","09:30",0.0,15.2,55.6,1012.8,341.5,2.0,4.0,340.3,0.33,6.4,11.2,"09:24:40",1
"23/04/01","09:40",0.0,16.5,51.0,1012.8,304.0,1.2,2.7,243.6,0.36,6.4,11.6,"09:39:36",1
"23/04/01","09:50",0.0,16.5,47.5,1012.8,297.2,1.3,3.1,259.1,0.38,5.4,11.6,"09:42:16",1
"23/04/01","10:00",0.0,17.0,47.5,1012.6,257.9,1.3,2.2,239.3,0.41,5.8,11.7,"09:56:00",1
"23/04/01","10:10",0.0,17.7,46.3,1012.3,232.9,0.7,1.4,215.8,0.43,6.1,11.9,"10:00:24",1
"23/04/01","10:20",0.0,18.2,46.5,1012.6,205.6,0.7,1.8,121.3,0.45,6.6,11.7,"10:19:04",1
"23/04/01","10:30",0.0,18.7,45.8,1012.1,218.2,1.0,2.0,149.5,0.47,6.8,11.9,"10:22:08",1
"23/04/01","10:40",0.0,19.1,47.5,1011.6,13.9,0.8,2.0,41.0,0.49,7.7,11.8,"10:32:08",1
"23/04/01","10:50",0.0,19.4,46.0,1011.9,288.1,1.1,2.8,246.4,0.51,7.5,12.0,"10:43:12",1
"23/04/01","11:00",0.0,19.6,44.2,1011.4,221.3,1.1,2.4,197.8,0.52,7.1,12.2,"10:55:28",1
"23/04/01","11:10",0.0,19.9,43.4,1010.9,172.7,1.3,3.1,124.6,0.53,7.1,12.2,"11:09:12",1
"23/04/01","11:20",0.0,20.3,41.9,1010.9,175.1,1.1,3.5,158.3,0.55,7.0,12.2,"11:17:52",1
"23/04/01","11:30",0.0,20.4,42.6,1010.4,147.7,1.1,2.8,117.4,0.56,7.3,12.4,"11:20:24",1
"23/04/01","11:40",0.0,20.7,40.2,1010.4,117.2,1.3,3.9,123.1,0.57,6.7,12.5,"11:36:00",1
"23/04/01","11:50",0.0,21.3,40.5,1010.4,210.8,1.2,2.6,253.3,0.57,7.4,12.7,"11:40:24",1
"23/04/01","12:00",0.0,21.5,39.7,1010.0,269.1,1.3,2.8,318.1,0.58,7.3,12.6,"11:55:12",1
"23/04/01","12:10",0.0,22.0,39.1,1010.0,204.9,1.3,2.8,129.6,0.59,7.5,12.9,"12:08:40",1
"23/04/01","12:20",0.0,22.2,36.2,1009.5,168.5,1.5,3.3,237.8,0.59,6.6,12.9,"12:10:08",1
"23/04/01","12:30",0.0,22.5,35.1,1009.3,147.4,1.6,4.4,124.6,0.59,6.4,13.1,"12:27:52",1
"23/04/01","12:40",0.0,22.7,35.3,1009.3,164.0,1.6,4.3,122.5,0.59,6.6,13.3,"12:33:44",1
"23/04/01","12:50",0.0,23.1,34.6,1009.0,205.0,1.7,3.6,234.4,0.59,6.7,13.3,"12:40:16",1
"23/04/01","13:00",0.0,23.4,36.7,1008.8,170.4,1.5,3.4,168.3,0.59,7.8,13.2,"12:56:24",1
"23/04/01","13:10",0.0,23.7,35.2,1008.6,182.4,1.7,4.4,233.1,0.59,7.5,13.4,"13:03:12",1
"23/04/01","13:20",0.0,23.8,35.3,1008.6,163.5,2.2,4.8,130.3,0.58,7.6,13.6,"13:17:20",1
"23/04/01","13:30",0.0,23.9,31.9,1008.8,222.8,2.2,5.2,148.1,0.57,6.2,13.6,"13:29:28",1
"23/04/01","13:40",0.0,24.2,31.2,1008.6,156.0,2.2,4.2,137.8,0.57,6.2,14.1,"13:39:20",1
"23/04/01","13:50",0.0,24.4,32.1,1008.3,185.8,2.1,5.1,155.8,0.55,6.7,14.0,"13:40:24",1
"23/04/01","14:00",0.0,24.5,29.2,1007.8,160.8,2.1,3.9,227.0,0.54,5.5,14.2,"13:54:00",1
"23/04/01","14:10",0.0,24.2,26.2,1008.1,116.1,1.8,3.2,116.7,0.53,3.7,14.2,"14:07:36",1
"23/04/01","14:20",0.0,24.6,28.1,1007.6,226.4,2.0,4.7,228.9,0.53,5.0,14.2,"14:13:20",1
"23/04/01","14:30",0.0,24.7,25.4,1007.6,224.4,2.1,4.4,229.3,0.50,3.6,14.3,"14:21:52",1
"23/04/01","14:40",0.0,25.4,27.8,1006.7,199.1,1.2,3.1,213.5,0.48,5.5,14.4,"14:30:24",1
"23/04/01","14:50",0.0,25.5,24.7,1007.1,146.0,1.0,2.0,215.9,0.47,3.9,14.5,"14:42:32",1
"23/04/01","15:00",0.0,25.1,28.0,1006.7,224.2,2.1,5.0,355.1,0.45,5.4,14.7,"14:52:30",1
"23/04/01","15:10",0.0,24.9,25.7,1006.7,108.1,1.7,4.4,122.2,0.43,4.0,14.9,"15:07:04",1
"23/04/01","15:20",0.0,24.9,24.8,1006.9,124.4,1.6,3.4,129.3,0.42,3.5,14.9,"15:10:48",1
"23/04/01","15:30",0.0,25.4,23.4,1006.2,349.1,1.1,2.5,140.5,0.40,3.1,14.9,"15:22:40",1
"23/04/01","15:40",0.0,24.6,24.4,1007.1,353.2,3.1,5.8,336.0,0.37,3.0,14.9,"15:34:56",1
"23/04/01","15:50",0.0,24.2,24.4,1006.9,351.2,3.4,6.8,313.9,0.35,2.6,15.2,"15:41:20",1
"23/04/01","16:00",0.0,24.3,26.0,1006.9,355.5,2.8,5.6,335.0,0.32,3.6,15.2,"15:52:56",1
"23/04/01","16:10",0.0,23.8,26.9,1006.9,347.2,3.9,7.3,332.3,0.31,3.7,15.3,"16:02:56",1
"23/04/01","16:20",0.0,23.4,27.5,1006.9,343.0,4.2,7.0,357.5,0.28,3.7,15.3,"16:14:56",1
"23/04/01","16:30",0.0,23.2,26.7,1007.1,345.1,4.2,7.7,337.8,0.25,3.1,15.2,"16:25:20",1
"23/04/01","16:40",0.0,22.7,27.3,1006.9,338.5,5.0,8.2,326.8,0.23,3.0,15.1,"16:33:12",1
"23/04/01","16:50",0.0,22.6,28.3,1007.4,341.8,4.5,9.4,349.9,0.21,3.4,15.4,"16:41:28",1
"23/04/01","17:00",0.0,22.4,29.6,1007.1,344.7,4.6,8.3,22.6,0.18,3.8,15.4,"16:54:32",1
"23/04/01","17:10",0.0,21.9,27.2,1007.4,343.3,5.1,8.3,336.2,0.15,2.2,15.1,"17:01:52",1
"23/04/01","17:20",0.0,21.7,29.1,1007.1,346.7,4.5,7.8,322.5,0.11,3.0,15.6,"17:12:24",1
"23/04/01","17:30",0.0,21.4,30.0,1007.6,350.1,4.1,7.5,351.0,0.09,3.2,15.3,"17:25:52",1
"23/04/01","17:40",0.0,21.0,31.8,1007.4,345.4,3.9,6.4,348.5,0.07,3.6,15.2,"17:38:40",1
"23/04/01","17:50",0.0,20.4,33.3,1007.6,342.7,5.1,7.5,327.1,0.06,3.8,15.2,"17:48:40",1
"23/04/01","18:00",0.0,19.9,35.0,1007.6,340.0,5.4,8.2,335.4,0.04,4.0,15.2,"17:52:32",1
"23/04/01","18:10",0.0,19.4,35.8,1007.8,340.9,5.0,10.8,346.1,0.02,3.9,15.1,"18:01:52",1
"23/04/01","18:20",0.0,19.1,37.5,1008.1,340.0,4.7,9.5,327.8,0.02,4.3,15.2,"18:13:44",1
"23/04/01","18:30",0.0,18.7,38.1,1007.6,340.6,4.9,10.3,321.7,0.01,4.2,14.9,"18:24:48",1
"23/04/01","18:40",0.0,18.4,38.5,1008.1,341.1,5.4,11.2,332.8,0.00,4.1,14.9,"18:33:24",1
"23/04/01","18:50",0.0,18.0,39.5,1008.3,337.3,5.4,8.5,336.5,0.00,4.1,15.1,"18:46:40",1
"23/04/01","19:00",0.0,17.7,39.5,1008.3,338.2,4.9,9.3,352.5,0.00,3.8,14.9,"18:59:36",1
"23/04/01","19:10",0.0,17.3,39.6,1008.6,337.4,4.4,6.8,358.4,0.00,3.5,15.1,"19:09:54",1
"23/04/01","19:20",0.0,17.0,40.2,1008.6,337.2,3.7,6.2,8.2,0.00,3.4,14.9,"19:19:12",1
"23/04/01","19:30",0.0,16.8,40.0,1009.3,334.8,4.0,10.5,325.9,0.00,3.2,14.9,"19:21:30",1
"23/04/01","19:40",0.0,16.8,40.0,1008.8,335.4,4.7,8.2,348.0,0.00,3.2,14.8,"19:34:48",1
"23/04/01","19:50",0.0,16.5,40.9,1009.3,333.3,4.0,5.8,319.9,0.00,3.2,14.7,"19:40:08",1
"23/04/01","20:00",0.0,16.2,42.0,1009.5,331.2,4.4,11.4,351.8,0.00,3.3,14.7,"19:53:38",1
"23/04/01","20:10",0.0,16.1,42.4,1009.7,332.4,4.1,7.8,352.3,0.00,3.4,14.6,"20:04:16",1
"23/04/01","20:20",0.0,15.8,42.7,1009.7,337.1,2.2,5.1,318.4,0.00,3.2,14.4,"20:11:54",1
"23/04/01","20:30",0.0,15.7,42.6,1010.0,358.4,2.2,5.0,343.9,0.00,3.1,14.4,"20:25:40",1
"23/04/01","20:40",0.0,15.4,43.4,1010.2,355.2,1.6,3.6,346.1,0.00,3.1,14.6,"20:34:16",1
"23/04/01","20:50",0.0,15.3,43.8,1010.0,359.8,1.5,2.7,357.8,0.00,3.1,14.5,"20:47:12",1
"23/04/01","21:00",0.0,15.0,45.4,1010.4,323.7,1.7,3.2,349.1,0.00,3.3,14.2,"20:55:22",1
"23/04/01","21:10",0.0,14.3,48.3,1010.2,317.9,1.8,2.5,254.0,0.00,3.6,14.5,"21:00:08",1
"23/04/01","21:20",0.0,13.4,53.3,1010.4,317.4,2.6,3.5,305.3,0.00,4.1,14.4,"21:19:42",1
"23/04/01","21:30",0.0,13.9,51.4,1010.2,322.5,3.9,5.2,307.9,0.00,4.1,14.4,"21:22:50",1
"23/04/01","21:40",0.0,13.8,52.1,1010.2,324.5,4.1,4.9,324.4,0.00,4.2,14.2,"21:33:00",1
"23/04/01","21:50",0.0,13.6,53.3,1010.4,327.4,3.6,4.9,327.3,0.00,4.3,14.2,"21:45:54",1
"23/04/01","22:00",0.0,13.2,55.6,1010.4,330.7,2.7,5.5,315.7,0.00,4.6,14.2,"21:52:02",1
"23/04/01","22:10",0.0,13.0,57.0,1010.4,320.6,2.8,4.9,320.7,0.00,4.7,14.1,"22:00:52",1
"23/04/01","22:20",0.0,12.8,58.2,1010.7,330.3,3.5,5.0,321.0,0.00,4.8,14.1,"22:15:12",1
"23/04/01","22:30",0.0,13.1,56.7,1010.4,327.0,3.5,5.1,320.5,0.00,4.7,13.9,"22:20:58",1
"23/04/01","22:40",0.0,12.9,58.6,1010.4,331.0,3.7,5.0,331.9,0.00,5.0,13.9,"22:35:58",1
"23/04/01","22:50",0.0,12.7,59.9,1010.7,328.7,4.1,5.7,325.8,0.00,5.2,13.8,"22:42:40",1
"23/04/01","23:00",0.0,12.5,60.3,1010.2,330.1,4.0,5.1,321.0,0.00,5.1,13.9,"22:59:48",1
"23/04/01","23:10",0.0,12.1,61.8,1010.9,334.8,3.2,4.9,340.8,0.00,5.0,13.8,"23:09:38",1
"23/04/01","23:20",0.0,11.4,64.5,1010.9,336.1,3.7,5.1,340.8,0.00,5.0,13.8,"23:10:42",1
"23/04/01","23:30",0.0,11.3,65.7,1010.7,336.6,3.5,4.8,342.8,0.00,5.2,13.8,"23:21:22",1
"23/04/01","23:40",0.0,11.6,66.0,1010.9,332.5,3.9,5.5,322.3,0.00,5.5,13.8,"23:34:00",1
"23/04/01","23:50",0.0,11.5,66.9,1010.7,335.0,3.6,5.9,322.4,0.00,5.6,13.7,"23:48:50",1
"23/04/01","24:00",0.0,11.6,66.9,1011.2,332.5,3.6,6.0,337.2,0.00,5.7,13.7,"23:53:22",1
